Tracking 19572 objects as of 23-Feb-2019
HD Live streaming from Space Station
objects crossing your sky now

NANOSAT(1)

Track NANOSAT(1) now!
10-day predictions
NANOSAT(1) is classified as:


NORAD ID: 28493
Int'l Code: 2004-049B
Perigee: 654.0 km
Apogee: 660.2 km
Inclination: 98.1 °
Period: 97.7 minutes
Semi major axis: 7028 km
RCS: 0.2736 m2 (medium)
Launch date: December 18, 2004
Source: Spain (SPN)
Launch site: FRENCH GUIANA (FRGUI)

Will maintain contact with Spanish zone in Antarctica; extremely small magnetic and solar sensors.
aabbcc
Your satellite tracking list
Your tracking list is empty




NASA's NSSDC Master Catalog

Two Line Element Set (TLE):
1 28493U 04049B   19053.91652821 +.00000060 +00000-0 +17157-4 0  9996
2 28493 098.1428 137.7129 0004386 182.5336 177.5851 14.73480097761583
Source of the keplerian elements: AFSPC